Retour au catalogue

FENGYUN 1C DEB

ActifPO
NORAD 30341·DEBRIS·🇨🇳 China

Lancé May 10, 1999 depuis Taiyuan Satellite Launch Center

Loading…

Prochains Passages (prochaines 24 heures)

TLE

FraisSource: Space-Track

Époque: Sep 14, 2026, 05:08 UTC

1 30341U 99025ABC 26257.21395811  .00004303  00000-0  14274-2 0  9998
2 30341  99.2100 169.2574 0049162 341.4391 174.3379 14.37690015 10354

Suivez FENGYUN 1C DEB en temps réel avec AllMySat

Download on the App Store